EW2327 Weather Reports


time (UTC)temp
C
wind
direction
speed
KPH
gust
KPH
rain 1hr
cm
rain 24hr
cm
rain mn
cm
humidity
%
barometer
mb
20260510094549 20 184 3.2 8.0 0.00 0.08 0.00 82 1007.1
20260510093101 20 183 3.2 8.0 0.00 0.08 0.00 81 1007.1
20260510091546 20 178 0.0 0.0 0.00 0.08 0.00 78 1007.1
20260510090050 20 178 0.0 0.0 0.00 0.08 0.00 78 1006.9
20260510084549 20 178 0.0 0.0 0.00 0.08 0.00 78 1007.0
20260510083047 21 178 0.0 0.0 0.00 0.08 0.00 78 1007.0
20260510081556 21 178 0.0 4.8 0.00 0.08 0.00 78 1006.9
20260510080039 21 178 1.6 4.8 0.00 0.08 0.00 79 1007.0
20260510074537 21 178 0.0 3.2 0.00 0.08 0.00 77 1007.2
20260510073050 21 178 1.6 6.4 0.00 0.08 0.00 78 1007.1
20260510071536 22 178 3.2 6.4 0.00 0.08 0.00 77 1007.2
20260510070037 22 178 1.6 4.8 0.00 0.08 0.00 76 1007.1
20260510064545 22 178 1.6 6.4 0.00 0.08 0.00 76 1007.0
20260510063039 22 171 1.6 4.8 0.00 0.08 0.00 75 1006.9
20260510061532 22 181 1.6 6.4 0.00 0.08 0.00 74 1006.9
20260510060039 22 181 1.6 3.2 0.00 0.08 0.00 74 1006.9
20260510054526 22 181 0.0 6.4 0.00 0.08 0.00 73 1006.9
20260510053035 23 172 0.0 11.3 0.00 0.08 0.00 72 1006.9
20260510051522 23 178 1.6 6.4 0.00 0.08 0.00 71 1006.9
20260510050014 23 178 0.0 3.2 0.00 0.08 0.00 70 1006.9
20260510044532 23 178 0.0 1.6 0.00 0.08 0.08 69 1006.8
20260510043014 23 178 0.0 0.0 0.00 0.08 0.08 68 1006.7
20260510041513 24 178 0.0 3.2 0.00 0.08 0.08 68 1006.7
20260510040021 24 178 1.6 4.8 0.00 0.08 0.08 68 1006.6
20260510034512 23 178 0.0 3.2 0.00 0.08 0.08 65 1006.6
20260510033012 24 178 0.0 0.0 0.00 0.08 0.08 64 1006.4
20260510031510 24 178 0.0 0.0 0.00 0.08 0.08 64 1006.3
20260510030011 25 178 0.0 3.2 0.00 0.08 0.08 63 1006.0
20260510024509 25 178 0.0 3.2 0.00 0.08 0.08 62 1005.8
20260510023008 25 178 0.0 1.6 0.00 0.08 0.08 61 1005.7
20260510021508 25 178 0.0 1.6 0.00 0.08 0.08 61 1005.6
20260510020010 26 178 0.0 3.2 0.00 0.08 0.08 60 1005.4
20260510014506 26 178 0.0 0.0 0.00 0.08 0.08 59 1005.3
20260510013008 27 178 0.0 0.0 0.00 0.08 0.08 59 1005.1
20260510011505 27 178 0.0 1.6 0.00 0.08 0.08 59 1004.9
20260510010005 27 178 0.0 3.2 0.00 0.08 0.08 60 1004.9
20260510004503 28 178 0.0 4.8 0.00 0.08 0.08 59 1004.8
20260510003004 28 194 3.2 9.7 0.00 0.08 0.08 59 1004.8
20260510001502 28 125 1.6 8.0 0.00 0.08 0.08 58 1004.5
20260510000002 28 164 3.2 11.3 0.00 0.08 0.08 58 1004.4
20260509234501 28 201 1.6 12.9 0.00 0.08 0.08 57 1004.2
20260509233106 29 112 1.6 8.0 0.00 0.08 0.08 58 1004.1
20260509231601 29 186 3.2 14.5 0.00 0.08 0.08 59 1004.0
20260509230100 29 146 4.8 11.3 0.00 0.08 0.08 59 1004.0
20260509224600 29 204 4.8 12.9 0.00 0.08 0.08 60 1004.0
20260509223101 29 192 6.4 25.7 0.00 0.08 0.08 62 1004.0
20260509221556 28 171 1.6 4.8 0.00 0.08 0.08 67 1003.9
20260509220058 28 175 6.4 11.3 0.00 0.08 0.08 66 1003.9
20260509214554 27 151 3.2 12.9 0.00 0.08 0.08 68 1003.9
20260509213054 26 115 4.8 12.9 0.00 0.08 0.08 69 1004.2
20260509211549 27 326 3.2 16.1 0.00 0.08 0.08 69 1004.7
20260509210050 28 187 9.7 24.1 0.00 0.08 0.08 67 1005.0
20260509204548 31 251 1.6 4.8 0.00 0.08 0.08 71 1004.7
20260509203044 30 332 4.8 8.0 0.00 0.08 0.08 74 1004.5
20260509201553 30 205 0.0 4.8 0.00 0.08 0.08 75 1004.7
20260509200051 30 205 1.6 12.9 0.00 0.08 0.08 74 1004.9
20260509194539 30 195 4.8 12.9 0.00 0.08 0.08 75 1005.1
20260509193039 30 180 4.8 9.7 0.00 0.08 0.08 77 1005.3
20260509191534 29 191 1.6 9.7 0.00 0.08 0.08 79 1005.5
20260509190035 29 330 3.2 6.4 0.00 0.08 0.08 82 1005.7
20260509184538 28 322 0.0 6.4 0.00 0.08 0.08 83 1006.1
20260509183025 28 325 0.0 6.4 0.00 0.08 0.08 84 1006.3
20260509181521 28 186 4.8 11.3 0.00 0.08 0.08 83 1006.5
20260509180018 27 191 1.6 4.8 0.00 0.08 0.08 84 1006.6
20260509174516 27 153 3.2 8.0 0.00 0.08 0.08 85 1006.8
20260509173014 27 173 3.2 8.0 0.00 0.08 0.08 86 1007.0
20260509171523 27 229 1.6 6.4 0.00 0.08 0.08 87 1007.1
20260509170011 26 240 1.6 6.4 0.00 0.08 0.08 88 1007.1
20260509164508 26 171 1.6 6.4 0.00 0.08 0.08 88 1007.2
20260509163008 26 179 0.0 11.3 0.00 0.08 0.08 88 1007.2
20260509161502 25 236 0.0 4.8 0.00 0.08 0.08 90 1007.2
20260509160100 25 225 0.0 6.4 0.00 0.08 0.08 90 1007.1
20260509154556 24 167 3.2 8.0 0.00 0.08 0.08 91 1007.3
20260509153055 23 169 3.2 9.7 0.00 0.08 0.08 91 1007.5
20260509151550 23 160 1.6 8.0 0.00 0.08 0.08 91 1007.7
20260509150100 22 151 4.8 14.5 0.00 0.08 0.08 91 1007.5
20260509144620 22 196 4.8 12.9 0.00 0.08 0.08 91 1007.2
20260509143044 22 123 4.8 9.7 0.00 0.08 0.08 91 1006.9
20260509141540 22 160 1.6 8.0 0.00 0.08 0.08 90 1006.8
20260509140031 22 181 0.0 0.0 0.00 0.08 0.08 90 1007.3
20260509134530 22 181 0.0 1.6 0.00 0.08 0.08 90 1007.2
20260509133033 22 181 0.0 0.0 0.00 0.08 0.08 90 1007.3
20260509131538 22 181 0.0 1.6 0.00 0.08 0.08 90 1007.3
20260509130029 22 315 0.0 3.2 0.00 0.08 0.08 89 1007.2
20260509124532 22 315 0.0 3.2 0.00 0.08 0.08 89 1006.8
20260509123028 22 327 3.2 8.0 0.00 0.08 0.08 89 1006.5
20260509121532 22 334 0.0 4.8 0.00 0.08 0.08 89 1006.9
20260509120027 22 334 0.0 4.8 0.03 0.08 0.08 89 1007.0
20260509114525 22 341 0.0 3.2 0.03 0.08 0.08 89 1007.1
20260509113025 22 341 1.6 4.8 0.03 0.08 0.08 89 1007.4
20260509111525 22 50 0.0 4.8 0.03 0.08 0.08 89 1007.6
20260509110024 22 313 1.6 4.8 0.00 0.05 0.05 89 1007.8
20260509104531 22 215 1.6 4.8 0.00 0.05 0.05 89 1007.7
20260509103021 22 196 0.0 3.2 0.03 0.05 0.05 88 1007.5
20260509101518 22 196 0.0 1.6 0.03 0.05 0.05 88 1006.9
20260509100026 22 196 0.0 1.6 0.05 0.05 0.05 88 1006.8